Time,TemperatureF,DewpointF,PressureIn,WindDirection,WindDirectionDegrees,WindSpeedMPH,WindSpeedGustMPH,Humidity,HourlyPrecipIn,Conditions,Clouds,dailyrainin,SoftwareType,DateUTC
2013-03-11 00:00:00,24.8,22.0,28.50,NNW,338,14.3,17.7,89,0.00,,,0.00,VWS V14.01,2013-03-11 05:00:00,
2013-03-11 00:05:00,24.8,22.0,28.50,NNW,338,18.1,18.1,89,0.00,,,0.00,VWS V14.01,2013-03-11 05:05:00,
2013-03-11 00:10:00,24.8,22.0,28.50,NNW,338,13.0,18.1,89,0.00,,,0.00,VWS V14.01,2013-03-11 05:10:00,
2013-03-11 00:15:00,24.6,21.9,28.50,NNW,338,13.0,19.0,89,0.00,,,0.00,VWS V14.01,2013-03-11 05:15:00,
2013-03-11 00:20:00,24.6,21.9,28.50,NNW,338,13.6,17.7,89,0.00,,,0.00,VWS V14.01,2013-03-11 05:20:00,
2013-03-11 00:25:00,24.6,21.9,28.50,North,0,12.5,15.9,89,0.00,,,0.00,VWS V14.01,2013-03-11 05:25:00,
2013-03-11 00:30:00,24.6,21.9,28.50,NNW,338,13.0,15.2,89,0.00,,,0.00,VWS V14.01,2013-03-11 05:30:00,
2013-03-11 00:35:00,24.6,21.9,28.50,NNW,338,13.4,15.4,89,0.00,,,0.00,VWS V14.01,2013-03-11 05:35:00,
2013-03-11 00:40:00,24.6,21.9,28.50,NNW,338,12.1,17.0,89,0.00,,,0.00,VWS V14.01,2013-03-11 05:40:00,
2013-03-11 00:45:00,24.6,21.9,28.52,NW,315,15.4,17.0,89,0.00,,,0.00,VWS V14.01,2013-03-11 05:45:00,
2013-03-11 00:50:00,24.6,21.9,28.52,NNW,338,15.2,17.2,89,0.00,,,0.00,VWS V14.01,2013-03-11 05:50:00,
2013-03-11 00:55:00,24.4,21.7,28.52,NNW,338,14.3,17.7,89,0.00,,,0.00,VWS V14.01,2013-03-11 05:55:00,
2013-03-11 01:00:00,24.4,21.7,28.50,NNW,338,13.0,15.7,89,0.00,,,0.00,VWS V14.01,2013-03-11 06:00:00,
2013-03-11 01:05:00,24.4,21.7,28.50,NNW,338,15.4,15.4,89,0.00,,,0.00,VWS V14.01,2013-03-11 06:05:00,
2013-03-11 01:10:00,24.4,21.7,28.50,NNW,338,14.3,16.3,89,0.00,,,0.00,VWS V14.01,2013-03-11 06:10:00,
2013-03-11 01:15:00,24.4,21.7,28.50,NNW,338,12.8,16.8,89,0.00,,,0.00,VWS V14.01,2013-03-11 06:15:00,
2013-03-11 01:20:00,24.3,21.2,28.50,NW,315,13.2,17.0,88,0.00,,,0.00,VWS V14.01,2013-03-11 06:20:00,
2013-03-11 01:25:00,24.3,21.2,28.50,NNW,338,13.0,17.5,88,0.00,,,0.00,VWS V14.01,2013-03-11 06:25:00,
2013-03-11 01:30:00,24.1,21.0,28.50,NNW,338,13.6,17.9,88,0.00,,,0.00,VWS V14.01,2013-03-11 06:30:00,
2013-03-11 01:35:00,24.1,21.0,28.50,NNW,338,15.2,19.5,88,0.00,,,0.00,VWS V14.01,2013-03-11 06:35:00,
2013-03-11 01:40:00,24.1,21.0,28.50,NNW,338,14.8,19.2,88,0.00,,,0.00,VWS V14.01,2013-03-11 06:40:00,
2013-03-11 01:45:00,24.1,21.0,28.50,NNW,338,14.8,18.8,88,0.00,,,0.00,VWS V14.01,2013-03-11 06:45:00,
2013-03-11 01:50:00,23.9,20.9,28.50,NW,315,14.8,17.7,88,0.00,,,0.00,VWS V14.01,2013-03-11 06:50:00,
2013-03-11 01:55:00,23.9,20.9,28.50,NNW,338,19.0,19.0,88,0.00,,,0.00,VWS V14.01,2013-03-11 06:55:00,
2013-03-11 02:00:00,23.7,20.4,28.50,NNW,338,14.1,19.7,87,0.00,,,0.00,VWS V14.01,2013-03-11 07:00:00,
2013-03-11 02:05:00,23.7,20.4,28.50,NNW,338,13.2,17.7,87,0.00,,,0.00,VWS V14.01,2013-03-11 07:05:00,
2013-03-11 02:10:00,23.7,20.4,28.50,NNW,338,16.3,17.5,87,0.00,,,0.00,VWS V14.01,2013-03-11 07:10:00,
2013-03-11 02:15:00,23.7,20.7,28.50,NNW,338,13.0,17.2,88,0.00,,,0.00,VWS V14.01,2013-03-11 07:15:00,
2013-03-11 02:20:00,23.7,20.7,28.50,NNW,338,12.3,18.8,88,0.00,,,0.00,VWS V14.01,2013-03-11 07:20:00,
2013-03-11 02:25:00,23.7,21.0,28.50,NNW,338,14.5,15.2,89,0.00,,,0.00,VWS V14.01,2013-03-11 07:25:00,
2013-03-11 02:30:00,23.7,21.0,28.50,NNW,338,15.2,15.4,89,0.00,,,0.00,VWS V14.01,2013-03-11 07:30:00,
2013-03-11 02:35:00,23.7,21.0,28.50,NNW,338,14.1,17.0,89,0.00,,,0.00,VWS V14.01,2013-03-11 07:35:00,
2013-03-11 02:40:00,23.7,21.0,28.50,NNW,338,12.8,18.6,89,0.00,,,0.00,VWS V14.01,2013-03-11 07:40:00,
2013-03-11 02:45:00,23.7,20.7,28.50,NNW,338,15.7,17.2,88,0.00,,,0.00,VWS V14.01,2013-03-11 07:45:00,
2013-03-11 02:50:00,23.7,21.0,28.50,NNW,338,11.0,15.7,89,0.00,,,0.00,VWS V14.01,2013-03-11 07:50:00,
2013-03-11 02:55:00,23.7,21.0,28.50,NW,315,13.0,15.4,89,0.00,,,0.00,VWS V14.01,2013-03-11 07:55:00,
2013-03-11 03:00:00,23.5,20.8,28.50,NNW,338,11.0,13.2,89,0.00,,,0.00,VWS V14.01,2013-03-11 08:00:00,
2013-03-11 03:05:00,23.5,20.5,28.50,NNW,338,13.2,16.8,88,0.00,,,0.00,VWS V14.01,2013-03-11 08:05:00,
2013-03-11 03:10:00,23.5,20.5,28.50,NNW,338,14.8,15.4,88,0.00,,,0.00,VWS V14.01,2013-03-11 08:10:00,
2013-03-11 03:15:00,23.5,20.2,28.50,NW,315,12.8,15.7,87,0.00,,,0.00,VWS V14.01,2013-03-11 08:15:00,
2013-03-11 03:20:00,23.5,20.0,28.50,NNW,338,10.7,13.2,86,0.00,,,0.00,VWS V14.01,2013-03-11 08:20:00,
2013-03-11 03:25:00,23.5,20.0,28.50,NNW,338,13.9,16.8,86,0.00,,,0.00,VWS V14.01,2013-03-11 08:25:00,
2013-03-11 03:30:00,23.5,20.0,28.50,NNW,338,12.3,15.4,86,0.00,,,0.00,VWS V14.01,2013-03-11 08:30:00,
2013-03-11 03:35:00,23.5,20.0,28.50,NNW,338,11.4,13.2,86,0.00,,,0.00,VWS V14.01,2013-03-11 08:35:00,
2013-03-11 03:40:00,23.5,20.0,28.50,NNW,338,10.5,16.1,86,0.00,,,0.00,VWS V14.01,2013-03-11 08:40:00,
2013-03-11 03:45:00,23.5,20.2,28.47,NNW,338,12.8,13.2,87,0.00,,,0.00,VWS V14.01,2013-03-11 08:45:00,
2013-03-11 03:50:00,23.5,20.2,28.47,NNW,338,10.5,14.1,87,0.00,,,0.00,VWS V14.01,2013-03-11 08:50:00,
2013-03-11 03:55:00,23.4,20.1,28.47,NNW,338,11.0,14.8,87,0.00,,,0.00,VWS V14.01,2013-03-11 08:55:00,
2013-03-11 04:00:00,23.4,20.1,28.50,NNW,338,15.7,15.7,87,0.00,,,0.00,VWS V14.01,2013-03-11 09:00:00,
2013-03-11 04:05:00,23.5,20.2,28.50,NNW,338,12.8,15.7,87,0.00,,,0.00,VWS V14.01,2013-03-11 09:05:00,
2013-03-11 04:10:00,23.5,20.0,28.50,NNW,338,10.3,16.1,86,0.00,,,0.00,VWS V14.01,2013-03-11 09:10:00,
2013-03-11 04:15:00,23.5,20.0,28.50,NNW,338,12.8,14.1,86,0.00,,,0.00,VWS V14.01,2013-03-11 09:15:00,
2013-03-11 04:20:00,23.5,19.7,28.50,NNW,338,10.3,15.9,85,0.00,,,0.00,VWS V14.01,2013-03-11 09:20:00,
2013-03-11 04:25:00,23.5,19.7,28.50,NNW,338,11.0,17.0,85,0.00,,,0.00,VWS V14.01,2013-03-11 09:25:00,
2013-03-11 04:30:00,23.7,19.9,28.47,NNW,338,12.5,15.4,85,0.00,,,0.00,VWS V14.01,2013-03-11 09:30:00,
2013-03-11 04:35:00,23.7,19.9,28.47,NNW,338,12.5,15.4,85,0.00,,,0.00,VWS V14.01,2013-03-11 09:35:00,
2013-03-11 04:40:00,23.7,19.6,28.47,NNW,338,10.5,14.8,84,0.00,,,0.00,VWS V14.01,2013-03-11 09:40:00,
2013-03-11 04:45:00,23.7,19.6,28.47,NNW,338,11.0,14.5,84,0.00,,,0.00,VWS V14.01,2013-03-11 09:45:00,
2013-03-11 04:50:00,23.7,19.3,28.47,NNW,338,12.5,13.2,83,0.00,,,0.00,VWS V14.01,2013-03-11 09:50:00,
2013-03-11 04:55:00,23.7,19.0,28.47,NNW,338,9.4,14.8,82,0.00,,,0.00,VWS V14.01,2013-03-11 09:55:00,
2013-03-11 05:00:00,23.7,19.0,28.47,NW,315,10.5,13.2,82,0.00,,,0.00,VWS V14.01,2013-03-11 10:00:00,
2013-03-11 05:05:00,23.5,18.6,28.47,NNW,338,12.3,15.4,81,0.00,,,0.00,VWS V14.01,2013-03-11 10:05:00,
2013-03-11 05:10:00,23.5,18.6,28.47,NNW,338,13.6,15.4,81,0.00,,,0.00,VWS V14.01,2013-03-11 10:10:00,
2013-03-11 05:15:00,23.5,18.9,28.47,NW,315,10.1,13.6,82,0.00,,,0.00,VWS V14.01,2013-03-11 10:15:00,
2013-03-11 05:20:00,23.5,18.6,28.47,NNW,338,12.3,14.8,81,0.00,,,0.00,VWS V14.01,2013-03-11 10:20:00,
2013-03-11 05:25:00,23.5,18.6,28.47,NW,315,9.6,13.2,81,0.00,,,0.00,VWS V14.01,2013-03-11 10:25:00,
2013-03-11 05:30:00,23.5,18.6,28.47,NW,315,10.3,13.0,81,0.00,,,0.00,VWS V14.01,2013-03-11 10:30:00,
2013-03-11 05:35:00,23.5,18.6,28.47,NNW,338,10.5,15.2,81,0.00,,,0.00,VWS V14.01,2013-03-11 10:35:00,
2013-03-11 05:40:00,23.5,18.6,28.47,WNW,292,13.0,13.0,81,0.00,,,0.00,VWS V14.01,2013-03-11 10:40:00,
2013-03-11 05:45:00,23.4,18.4,28.50,NNW,338,10.3,14.3,81,0.00,,,0.00,VWS V14.01,2013-03-11 10:45:00,
2013-03-11 05:50:00,23.4,18.1,28.50,NW,315,12.1,15.9,80,0.00,,,0.00,VWS V14.01,2013-03-11 10:50:00,
2013-03-11 05:55:00,23.0,17.8,28.50,NNW,338,13.0,17.7,80,0.00,,,0.00,VWS V14.01,2013-03-11 10:55:00,
2013-03-11 06:00:00,23.0,17.8,28.50,NNW,338,12.3,17.7,80,0.00,,,0.00,VWS V14.01,2013-03-11 11:00:00,
2013-03-11 06:05:00,22.8,17.6,28.50,NW,315,11.4,15.9,80,0.00,,,0.00,VWS V14.01,2013-03-11 11:05:00,
2013-03-11 06:10:00,22.8,17.9,28.50,NNW,338,17.7,17.7,81,0.00,,,0.00,VWS V14.01,2013-03-11 11:10:00,
2013-03-11 06:15:00,22.8,17.6,28.50,NNW,338,13.2,17.7,80,0.00,,,0.00,VWS V14.01,2013-03-11 11:15:00,
2013-03-11 06:20:00,22.8,17.6,28.50,NW,315,12.5,15.2,80,0.00,,,0.00,VWS V14.01,2013-03-11 11:20:00,
2013-03-11 06:25:00,22.8,17.6,28.50,NNW,338,10.1,14.5,80,0.00,,,0.00,VWS V14.01,2013-03-11 11:25:00,
2013-03-11 06:30:00,22.8,17.6,28.50,NNW,338,11.0,13.2,80,0.00,,,0.00,VWS V14.01,2013-03-11 11:30:00,
2013-03-11 06:35:00,22.8,17.6,28.50,NNW,338,11.9,13.0,80,0.00,,,0.00,VWS V14.01,2013-03-11 11:35:00,
2013-03-11 06:40:00,22.8,17.6,28.50,NW,315,10.1,12.3,80,0.00,,,0.00,VWS V14.01,2013-03-11 11:40:00,
2013-03-11 06:45:00,22.8,17.6,28.50,NNW,338,11.2,12.8,80,0.00,,,0.00,VWS V14.01,2013-03-11 11:45:00,
2013-03-11 06:50:00,22.8,17.6,28.50,NNW,338,10.1,13.9,80,0.00,,,0.00,VWS V14.01,2013-03-11 11:50:00,
2013-03-11 06:55:00,22.8,17.6,28.50,NNW,338,13.0,15.4,80,0.00,,,0.00,VWS V14.01,2013-03-11 11:55:00,
2013-03-11 07:00:00,22.8,17.3,28.50,NW,315,10.3,14.8,79,0.00,,,0.00,VWS V14.01,2013-03-11 12:00:00,
2013-03-11 07:05:00,22.8,17.3,28.50,NNW,338,10.7,13.6,79,0.00,,,0.00,VWS V14.01,2013-03-11 12:05:00,
2013-03-11 07:10:00,22.6,17.1,28.50,NNW,338,12.5,15.7,79,0.00,,,0.00,VWS V14.01,2013-03-11 12:10:00,
2013-03-11 07:15:00,22.6,17.1,28.50,NW,315,11.0,16.1,79,0.00,,,0.00,VWS V14.01,2013-03-11 12:15:00,
2013-03-11 07:20:00,22.6,17.1,28.50,NNW,338,12.3,14.8,79,0.00,,,0.00,VWS V14.01,2013-03-11 12:20:00,
2013-03-11 07:25:00,22.6,17.1,28.50,NW,315,11.0,14.8,79,0.00,,,0.00,VWS V14.01,2013-03-11 12:25:00,
2013-03-11 07:30:00,22.5,16.9,28.50,NNW,338,12.5,14.5,79,0.00,,,0.00,VWS V14.01,2013-03-11 12:30:00,
2013-03-11 07:35:00,22.5,16.9,28.50,North,0,13.4,13.4,79,0.00,,,0.00,VWS V14.01,2013-03-11 12:35:00,
2013-03-11 07:40:00,22.5,16.9,28.50,NNW,338,13.2,16.6,79,0.00,,,0.00,VWS V14.01,2013-03-11 12:40:00,
2013-03-11 07:45:00,22.3,16.8,28.50,NNW,338,8.5,13.2,79,0.00,,,0.00,VWS V14.01,2013-03-11 12:45:00,
2013-03-11 07:50:00,22.3,16.8,28.50,NNW,338,9.8,13.2,79,0.00,,,0.00,VWS V14.01,2013-03-11 12:50:00,
2013-03-11 07:55:00,22.5,17.2,28.50,NNW,338,10.1,13.2,80,0.00,,,0.00,VWS V14.01,2013-03-11 12:55:00,
2013-03-11 08:00:00,22.5,16.9,28.50,NNW,338,10.5,14.8,79,0.00,,,0.00,VWS V14.01,2013-03-11 13:00:00,
2013-03-11 08:05:00,22.3,16.5,28.50,NW,315,10.7,12.1,78,0.00,,,0.00,VWS V14.01,2013-03-11 13:05:00,
2013-03-11 08:10:00,22.5,16.6,28.50,NW,315,13.0,13.0,78,0.00,,,0.00,VWS V14.01,2013-03-11 13:10:00,
2013-03-11 08:15:00,22.5,16.6,28.50,NW,315,10.1,13.4,78,0.00,,,0.00,VWS V14.01,2013-03-11 13:15:00,
2013-03-11 08:20:00,22.5,16.4,28.50,NNW,338,12.3,13.2,77,0.00,,,0.00,VWS V14.01,2013-03-11 13:20:00,
2013-03-11 08:25:00,22.6,16.5,28.50,NW,315,7.6,15.2,77,0.00,,,0.00,VWS V14.01,2013-03-11 13:25:00,
2013-03-11 08:30:00,22.8,17.0,28.50,NW,315,12.1,12.1,78,0.00,,,0.00,VWS V14.01,2013-03-11 13:30:00,
2013-03-11 08:35:00,22.8,16.7,28.50,NNW,338,10.3,12.5,77,0.00,,,0.00,VWS V14.01,2013-03-11 13:35:00,
2013-03-11 08:40:00,22.8,16.4,28.50,NNW,338,10.1,13.2,76,0.00,,,0.00,VWS V14.01,2013-03-11 13:40:00,
2013-03-11 08:45:00,23.0,16.6,28.50,NW,315,9.4,11.0,76,0.00,,,0.00,VWS V14.01,2013-03-11 13:45:00,
2013-03-11 08:50:00,23.2,16.5,28.50,NW,315,10.5,13.0,75,0.00,,,0.00,VWS V14.01,2013-03-11 13:50:00,
2013-03-11 08:55:00,23.4,16.3,28.50,NW,315,11.0,13.9,74,0.00,,,0.00,VWS V14.01,2013-03-11 13:55:00,
2013-03-11 09:00:00,23.5,16.5,28.50,WNW,292,8.5,13.2,74,0.00,,,0.00,VWS V14.01,2013-03-11 14:00:00,
2013-03-11 09:05:00,23.7,16.7,28.50,NNW,338,9.8,12.8,74,0.00,,,0.00,VWS V14.01,2013-03-11 14:05:00,
2013-03-11 09:10:00,23.9,16.5,28.50,NW,315,11.4,13.4,73,0.00,,,0.00,VWS V14.01,2013-03-11 14:10:00,
2013-03-11 09:15:00,24.1,16.7,28.50,NW,315,12.1,12.8,73,0.00,,,0.00,VWS V14.01,2013-03-11 14:15:00,
2013-03-11 09:20:00,24.3,16.5,28.50,NNW,338,8.1,14.1,72,0.00,,,0.00,VWS V14.01,2013-03-11 14:20:00,
2013-03-11 09:25:00,24.6,16.6,28.50,NNW,338,9.8,13.2,71,0.00,,,0.00,VWS V14.01,2013-03-11 14:25:00,
2013-03-11 09:30:00,24.8,16.1,28.50,NNW,338,10.3,13.2,69,0.00,,,0.00,VWS V14.01,2013-03-11 14:30:00,
2013-03-11 09:35:00,25.0,15.6,28.50,NNW,338,10.5,13.0,67,0.00,,,0.00,VWS V14.01,2013-03-11 14:35:00,
2013-03-11 09:40:00,25.2,15.8,28.50,NNW,338,8.7,12.3,67,0.00,,,0.00,VWS V14.01,2013-03-11 14:40:00,
2013-03-11 09:45:00,25.3,15.6,28.52,NW,315,9.4,13.0,66,0.00,,,0.00,VWS V14.01,2013-03-11 14:45:00,
2013-03-11 09:50:00,25.5,15.8,28.52,NW,315,8.1,13.6,66,0.00,,,0.00,VWS V14.01,2013-03-11 14:50:00,
2013-03-11 09:55:00,25.7,15.6,28.52,NNW,338,10.7,12.8,65,0.00,,,0.00,VWS V14.01,2013-03-11 14:55:00,
2013-03-11 10:00:00,25.7,14.9,28.52,NW,315,10.5,14.8,63,0.00,,,0.00,VWS V14.01,2013-03-11 15:00:00,
2013-03-11 10:05:00,26.1,15.2,28.52,NW,315,7.4,13.2,63,0.00,,,0.00,VWS V14.01,2013-03-11 15:05:00,
2013-03-11 10:10:00,26.1,14.5,28.52,NNW,338,12.1,13.2,61,0.00,,,0.00,VWS V14.01,2013-03-11 15:10:00,
2013-03-11 10:15:00,26.4,14.4,28.50,NNW,338,10.7,13.0,60,0.00,,,0.00,VWS V14.01,2013-03-11 15:15:00,
2013-03-11 10:20:00,27.0,14.9,28.50,NW,315,9.0,10.7,60,0.00,,,0.00,VWS V14.01,2013-03-11 15:20:00,
2013-03-11 10:25:00,27.1,14.3,28.50,NW,315,10.5,15.4,58,0.00,,,0.00,VWS V14.01,2013-03-11 15:25:00,
2013-03-11 10:30:00,27.3,14.5,28.52,NW,315,10.1,13.0,58,0.00,,,0.00,VWS V14.01,2013-03-11 15:30:00,
2013-03-11 10:35:00,27.3,14.1,28.52,NW,315,12.8,13.9,57,0.00,,,0.00,VWS V14.01,2013-03-11 15:35:00,
2013-03-11 10:40:00,27.5,13.9,28.52,NW,315,11.4,13.2,56,0.00,,,0.00,VWS V14.01,2013-03-11 15:40:00,
2013-03-11 10:45:00,27.7,14.4,28.52,NW,315,10.1,12.1,57,0.00,,,0.00,VWS V14.01,2013-03-11 15:45:00,
2013-03-11 10:50:00,27.9,14.2,28.52,NW,315,8.7,13.0,56,0.00,,,0.00,VWS V14.01,2013-03-11 15:50:00,
2013-03-11 10:55:00,28.0,14.0,28.52,NW,315,10.7,13.2,55,0.00,,,0.00,VWS V14.01,2013-03-11 15:55:00,
2013-03-11 11:00:00,28.0,14.0,28.52,WNW,292,10.7,19.2,55,0.00,,,0.00,VWS V14.01,2013-03-11 16:00:00,
2013-03-11 11:05:00,28.8,14.6,28.52,NW,315,9.8,11.0,55,0.00,,,0.00,VWS V14.01,2013-03-11 16:05:00,
2013-03-11 11:10:00,28.6,13.6,28.52,WNW,292,11.0,17.2,53,0.00,,,0.00,VWS V14.01,2013-03-11 16:10:00,
2013-03-11 11:15:00,29.1,14.6,28.50,NW,315,10.1,12.5,54,0.00,,,0.00,VWS V14.01,2013-03-11 16:15:00,
2013-03-11 11:20:00,29.3,14.3,28.50,NW,315,10.5,14.1,53,0.00,,,0.00,VWS V14.01,2013-03-11 16:20:00,
2013-03-11 11:25:00,30.0,15.0,28.50,NW,315,11.0,13.2,53,0.00,,,0.00,VWS V14.01,2013-03-11 16:25:00,
2013-03-11 11:30:00,30.2,14.7,28.50,NW,315,8.7,15.4,52,0.00,,,0.00,VWS V14.01,2013-03-11 16:30:00,
2013-03-11 11:35:00,30.2,14.3,28.50,WNW,292,12.8,15.2,51,0.00,,,0.00,VWS V14.01,2013-03-11 16:35:00,
2013-03-11 11:40:00,30.6,14.6,28.50,NW,315,8.7,12.8,51,0.00,,,0.00,VWS V14.01,2013-03-11 16:40:00,
2013-03-11 11:45:00,29.7,13.3,28.52,WNW,292,17.5,19.9,50,0.00,,,0.00,VWS V14.01,2013-03-11 16:45:00,
2013-03-11 11:50:00,30.0,14.5,28.52,WNW,292,14.1,18.6,52,0.00,,,0.00,VWS V14.01,2013-03-11 16:50:00,
2013-03-11 11:55:00,29.8,13.9,28.52,WNW,292,19.9,19.9,51,0.00,,,0.00,VWS V14.01,2013-03-11 16:55:00,
2013-03-11 12:00:00,30.4,14.0,28.52,NW,315,9.8,19.9,50,0.00,,,0.00,VWS V14.01,2013-03-11 17:00:00,
2013-03-11 12:05:00,30.4,14.0,28.52,WNW,292,13.0,17.7,50,0.00,,,0.00,VWS V14.01,2013-03-11 17:05:00,
2013-03-11 12:10:00,29.3,13.9,28.52,WNW,292,15.9,19.9,52,0.00,,,0.00,VWS V14.01,2013-03-11 17:10:00,
2013-03-11 12:15:00,28.8,13.4,28.52,WNW,292,15.9,19.9,52,0.00,,,0.00,VWS V14.01,2013-03-11 17:15:00,
2013-03-11 12:20:00,28.8,13.8,28.52,WNW,292,17.9,20.4,53,0.00,,,0.00,VWS V14.01,2013-03-11 17:20:00,
2013-03-11 12:25:00,28.6,13.6,28.52,WNW,292,15.7,21.3,53,0.00,,,0.00,VWS V14.01,2013-03-11 17:25:00,
2013-03-11 12:30:00,29.5,14.0,28.50,WNW,292,15.9,17.7,52,0.00,,,0.00,VWS V14.01,2013-03-11 17:30:00,
2013-03-11 12:35:00,29.5,13.6,28.50,WNW,292,19.5,21.0,51,0.00,,,0.00,VWS V14.01,2013-03-11 17:35:00,
2013-03-11 12:40:00,29.8,14.8,28.50,NNW,338,10.1,19.9,53,0.00,,,0.00,VWS V14.01,2013-03-11 17:40:00,
2013-03-11 12:45:00,29.1,13.7,28.50,WNW,292,15.4,19.9,52,0.00,,,0.00,VWS V14.01,2013-03-11 17:45:00,
2013-03-11 12:50:00,31.1,15.1,28.50,WNW,292,7.6,16.1,51,0.00,,,0.00,VWS V14.01,2013-03-11 17:50:00,
2013-03-11 12:55:00,31.8,15.3,28.50,NW,315,7.8,15.7,50,0.00,,,0.00,VWS V14.01,2013-03-11 17:55:00,
2013-03-11 13:00:00,32.2,15.2,28.50,NW,315,10.3,13.9,49,0.00,,,0.00,VWS V14.01,2013-03-11 18:00:00,
2013-03-11 13:05:00,32.0,13.6,28.50,NW,315,10.1,12.5,46,0.00,,,0.00,VWS V14.01,2013-03-11 18:05:00,
2013-03-11 13:10:00,32.0,13.1,28.50,WNW,292,13.2,13.9,45,0.00,,,0.00,VWS V14.01,2013-03-11 18:10:00,
2013-03-11 13:15:00,32.2,13.2,28.50,NW,315,17.2,17.2,45,0.00,,,0.00,VWS V14.01,2013-03-11 18:15:00,
2013-03-11 13:20:00,31.8,12.9,28.50,NW,315,13.9,17.5,45,0.00,,,0.00,VWS V14.01,2013-03-11 18:20:00,
2013-03-11 13:25:00,33.1,14.6,28.50,NW,315,8.1,13.9,46,0.00,,,0.00,VWS V14.01,2013-03-11 18:25:00,
2013-03-11 13:30:00,33.3,13.7,28.50,NW,315,10.1,15.4,44,0.00,,,0.00,VWS V14.01,2013-03-11 18:30:00,
2013-03-11 13:35:00,33.1,14.1,28.50,WNW,292,15.2,17.5,45,0.00,,,0.00,VWS V14.01,2013-03-11 18:35:00,
2013-03-11 13:40:00,30.4,12.6,28.50,WNW,292,16.6,17.7,47,0.00,,,0.00,VWS V14.01,2013-03-11 18:40:00,
2013-03-11 13:45:00,29.3,12.1,28.50,WNW,292,19.2,19.9,48,0.00,,,0.00,VWS V14.01,2013-03-11 18:45:00,
2013-03-11 13:50:00,29.1,12.8,28.50,WNW,292,15.4,21.9,50,0.00,,,0.00,VWS V14.01,2013-03-11 18:50:00,
2013-03-11 13:55:00,29.7,13.8,28.50,WNW,292,13.2,17.2,51,0.00,,,0.00,VWS V14.01,2013-03-11 18:55:00,
2013-03-11 14:00:00,29.3,13.0,28.52,WNW,292,16.3,19.7,50,0.00,,,0.00,VWS V14.01,2013-03-11 19:00:00,
2013-03-11 14:05:00,29.8,13.9,28.52,WNW,292,15.7,17.7,51,0.00,,,0.00,VWS V14.01,2013-03-11 19:05:00,
2013-03-11 14:10:00,29.8,13.9,28.52,WNW,292,15.4,17.7,51,0.00,,,0.00,VWS V14.01,2013-03-11 19:10:00,
2013-03-11 14:15:00,30.4,13.5,28.50,WNW,292,12.3,17.2,49,0.00,,,0.00,VWS V14.01,2013-03-11 19:15:00,
2013-03-11 14:20:00,31.1,14.2,28.50,WNW,292,15.4,15.7,49,0.00,,,0.00,VWS V14.01,2013-03-11 19:20:00,
2013-03-11 14:25:00,30.4,13.1,28.50,WNW,292,15.7,17.2,48,0.00,,,0.00,VWS V14.01,2013-03-11 19:25:00,
2013-03-11 14:30:00,30.6,13.7,28.50,WNW,292,12.8,17.7,49,0.00,,,0.00,VWS V14.01,2013-03-11 19:30:00,
2013-03-11 14:35:00,32.2,15.2,28.50,WNW,292,13.4,15.7,49,0.00,,,0.00,VWS V14.01,2013-03-11 19:35:00,
2013-03-11 14:40:00,31.1,13.7,28.50,WNW,292,10.7,14.8,48,0.00,,,0.00,VWS V14.01,2013-03-11 19:40:00,
2013-03-11 14:45:00,30.0,13.6,28.50,WNW,292,12.3,17.5,50,0.00,,,0.00,VWS V14.01,2013-03-11 19:45:00,
2013-03-11 14:50:00,30.2,13.8,28.50,WNW,292,10.5,16.3,50,0.00,,,0.00,VWS V14.01,2013-03-11 19:50:00,
2013-03-11 14:55:00,30.2,12.9,28.50,WNW,292,12.3,15.2,48,0.00,,,0.00,VWS V14.01,2013-03-11 19:55:00,
2013-03-11 15:00:00,31.6,14.2,28.50,WNW,292,13.2,13.9,48,0.00,,,0.00,VWS V14.01,2013-03-11 20:00:00,
2013-03-11 15:05:00,31.1,12.8,28.50,WNW,292,13.2,15.4,46,0.00,,,0.00,VWS V14.01,2013-03-11 20:05:00,
2013-03-11 15:10:00,31.1,13.7,28.50,WNW,292,15.7,15.7,48,0.00,,,0.00,VWS V14.01,2013-03-11 20:10:00,
2013-03-11 15:15:00,30.0,12.7,28.50,WNW,292,10.7,15.7,48,0.00,,,0.00,VWS V14.01,2013-03-11 20:15:00,
2013-03-11 15:20:00,29.3,13.0,28.50,WNW,292,14.5,16.6,50,0.00,,,0.00,VWS V14.01,2013-03-11 20:20:00,
2013-03-11 15:25:00,28.8,13.4,28.50,WNW,292,14.5,15.9,52,0.00,,,0.00,VWS V14.01,2013-03-11 20:25:00,
2013-03-11 15:30:00,28.4,13.0,28.50,WNW,292,15.4,17.2,52,0.00,,,0.00,VWS V14.01,2013-03-11 20:30:00,
2013-03-11 15:35:00,28.8,13.4,28.50,WNW,292,15.4,16.8,52,0.00,,,0.00,VWS V14.01,2013-03-11 20:35:00,
2013-03-11 15:40:00,28.8,13.4,28.50,WNW,292,12.8,17.0,52,0.00,,,0.00,VWS V14.01,2013-03-11 20:40:00,
2013-03-11 15:45:00,28.9,13.5,28.50,WNW,292,11.0,17.0,52,0.00,,,0.00,VWS V14.01,2013-03-11 20:45:00,
2013-03-11 15:50:00,29.7,14.2,28.50,WNW,292,15.4,15.4,52,0.00,,,0.00,VWS V14.01,2013-03-11 20:50:00,
2013-03-11 15:55:00,29.7,13.8,28.50,WNW,292,13.2,15.4,51,0.00,,,0.00,VWS V14.01,2013-03-11 20:55:00,
2013-03-11 16:10:00,30.4,14.4,28.52,WNW,292,12.1,15.4,51,0.00,,,0.00,VWS V14.01,2013-03-11 21:10:00,
2013-03-11 16:15:00,30.2,13.8,28.52,WNW,292,14.8,15.2,50,0.00,,,0.00,VWS V14.01,2013-03-11 21:15:00,
2013-03-11 16:20:00,30.0,14.1,28.52,WNW,292,13.2,15.9,51,0.00,,,0.00,VWS V14.01,2013-03-11 21:20:00,
2013-03-11 16:25:00,30.2,13.8,28.52,WNW,292,12.8,14.8,50,0.00,,,0.00,VWS V14.01,2013-03-11 21:25:00,
2013-03-11 16:30:00,30.4,14.4,28.52,WNW,292,12.5,13.6,51,0.00,,,0.00,VWS V14.01,2013-03-11 21:30:00,
2013-03-11 16:35:00,30.0,13.6,28.52,WNW,292,17.0,17.0,50,0.00,,,0.00,VWS V14.01,2013-03-11 21:35:00,
2013-03-11 16:40:00,30.4,14.0,28.52,WNW,292,12.8,18.8,50,0.00,,,0.00,VWS V14.01,2013-03-11 21:40:00,
2013-03-11 16:45:00,30.4,14.0,28.52,WNW,292,15.4,16.6,50,0.00,,,0.00,VWS V14.01,2013-03-11 21:45:00,
2013-03-11 16:50:00,29.7,13.8,28.52,WNW,292,13.0,17.5,51,0.00,,,0.00,VWS V14.01,2013-03-11 21:50:00,
2013-03-11 16:55:00,29.5,13.1,28.52,WNW,292,13.0,17.9,50,0.00,,,0.00,VWS V14.01,2013-03-11 21:55:00,
2013-03-11 17:00:00,29.3,13.4,28.52,NW,315,11.9,17.2,51,0.00,,,0.00,VWS V14.01,2013-03-11 22:00:00,
2013-03-11 17:05:00,29.5,13.6,28.52,WNW,292,14.3,15.2,51,0.00,,,0.00,VWS V14.01,2013-03-11 22:05:00,
2013-03-11 17:10:00,29.5,14.0,28.52,WNW,292,10.1,14.3,52,0.00,,,0.00,VWS V14.01,2013-03-11 22:10:00,
2013-03-11 17:15:00,29.5,14.0,28.52,WNW,292,10.3,13.6,52,0.00,,,0.00,VWS V14.01,2013-03-11 22:15:00,
2013-03-11 17:20:00,29.7,14.6,28.52,NW,315,10.5,13.0,53,0.00,,,0.00,VWS V14.01,2013-03-11 22:20:00,
2013-03-11 17:25:00,29.7,14.2,28.52,WNW,292,10.7,13.2,52,0.00,,,0.00,VWS V14.01,2013-03-11 22:25:00,
2013-03-11 17:30:00,30.2,14.3,28.52,NNW,338,10.5,12.1,51,0.00,,,0.00,VWS V14.01,2013-03-11 22:30:00,
2013-03-11 17:35:00,29.8,13.9,28.52,NW,315,7.4,12.5,51,0.00,,,0.00,VWS V14.01,2013-03-11 22:35:00,
2013-03-11 17:40:00,32.0,15.9,28.52,WNW,292,8.1,12.8,51,0.00,,,0.00,VWS V14.01,2013-03-11 22:40:00,
2013-03-11 17:45:00,32.7,16.1,28.52,WNW,292,10.3,11.9,50,0.00,,,0.00,VWS V14.01,2013-03-11 22:45:00,
2013-03-11 17:50:00,32.0,15.0,28.52,NW,315,8.5,10.7,49,0.00,,,0.00,VWS V14.01,2013-03-11 22:50:00,
2013-03-11 17:55:00,30.9,14.0,28.52,WNW,292,8.5,13.0,49,0.00,,,0.00,VWS V14.01,2013-03-11 22:55:00,
2013-03-11 18:00:00,30.0,13.6,28.52,WNW,292,10.3,12.3,50,0.00,,,0.00,VWS V14.01,2013-03-11 23:00:00,
2013-03-11 18:05:00,29.3,13.4,28.52,WNW,292,10.5,12.5,51,0.00,,,0.00,VWS V14.01,2013-03-11 23:05:00,
2013-03-11 18:10:00,28.4,13.0,28.52,WNW,292,8.5,11.0,52,0.00,,,0.00,VWS V14.01,2013-03-11 23:10:00,
2013-03-11 18:15:00,28.9,13.5,28.52,WNW,292,6.3,9.4,52,0.00,,,0.00,VWS V14.01,2013-03-11 23:15:00,
2013-03-11 18:20:00,29.5,14.0,28.52,WNW,292,5.8,7.2,52,0.00,,,0.00,VWS V14.01,2013-03-11 23:20:00,
2013-03-11 18:25:00,29.1,13.7,28.52,WNW,292,5.6,6.5,52,0.00,,,0.00,VWS V14.01,2013-03-11 23:25:00,
2013-03-11 18:30:00,27.0,12.6,28.52,WNW,292,6.3,6.5,54,0.00,,,0.00,VWS V14.01,2013-03-11 23:30:00,
2013-03-11 18:35:00,25.7,12.2,28.52,WNW,292,5.8,7.2,56,0.00,,,0.00,VWS V14.01,2013-03-11 23:35:00,
2013-03-11 18:40:00,26.4,13.3,28.52,West,270,5.8,7.4,57,0.00,,,0.00,VWS V14.01,2013-03-11 23:40:00,
2013-03-11 18:45:00,25.9,12.8,28.52,West,270,6.3,8.1,57,0.00,,,0.00,VWS V14.01,2013-03-11 23:45:00,
2013-03-11 18:50:00,24.6,12.0,28.52,West,270,7.6,8.7,58,0.00,,,0.00,VWS V14.01,2013-03-11 23:50:00,
2013-03-11 18:55:00,23.9,12.1,28.55,West,270,8.5,8.7,60,0.00,,,0.00,VWS V14.01,2013-03-11 23:55:00,
2013-03-11 19:00:00,23.4,12.3,28.55,West,270,8.7,10.1,62,0.00,,,0.00,VWS V14.01,2013-03-12 00:00:00,
2013-03-11 19:05:00,23.0,12.6,28.55,West,270,10.5,10.5,64,0.00,,,0.00,VWS V14.01,2013-03-12 00:05:00,
2013-03-11 19:10:00,23.7,15.1,28.55,West,270,10.1,10.7,69,0.00,,,0.00,VWS V14.01,2013-03-12 00:10:00,
2013-03-11 19:15:00,24.4,15.7,28.55,West,270,7.6,11.0,69,0.00,,,0.00,VWS V14.01,2013-03-12 00:15:00,
2013-03-11 19:20:00,24.8,16.1,28.55,West,270,8.7,10.1,69,0.00,,,0.00,VWS V14.01,2013-03-12 00:20:00,
2013-03-11 19:25:00,25.3,16.6,28.55,West,270,9.8,10.3,69,0.00,,,0.00,VWS V14.01,2013-03-12 00:25:00,
2013-03-11 19:30:00,25.7,17.0,28.55,West,270,9.6,11.0,69,0.00,,,0.00,VWS V14.01,2013-03-12 00:30:00,
2013-03-11 19:35:00,26.1,16.3,28.55,WNW,292,10.5,12.1,66,0.00,,,0.00,VWS V14.01,2013-03-12 00:35:00,
2013-03-11 19:40:00,26.1,15.9,28.55,WNW,292,10.1,10.5,65,0.00,,,0.00,VWS V14.01,2013-03-12 00:40:00,
2013-03-11 19:45:00,25.9,15.8,28.55,WNW,292,9.4,10.1,65,0.00,,,0.00,VWS V14.01,2013-03-12 00:45:00,
2013-03-11 19:50:00,25.9,16.1,28.55,WNW,292,7.2,9.8,66,0.00,,,0.00,VWS V14.01,2013-03-12 00:50:00,
2013-03-11 19:55:00,25.9,16.1,28.55,WNW,292,7.4,9.2,66,0.00,,,0.00,VWS V14.01,2013-03-12 00:55:00,
2013-03-11 20:00:00,25.7,16.6,28.55,West,270,7.8,8.5,68,0.00,,,0.00,VWS V14.01,2013-03-12 01:00:00,
2013-03-11 20:05:00,25.7,16.6,28.55,WNW,292,8.5,8.7,68,0.00,,,0.00,VWS V14.01,2013-03-12 01:05:00,
2013-03-11 20:10:00,25.9,17.1,28.55,WNW,292,7.6,9.6,69,0.00,,,0.00,VWS V14.01,2013-03-12 01:10:00,
2013-03-11 20:15:00,25.9,18.1,28.55,WSW,248,7.4,10.1,72,0.00,,,0.00,VWS V14.01,2013-03-12 01:15:00,
2013-03-11 20:20:00,25.9,18.8,28.55,WNW,292,8.7,8.7,74,0.00,,,0.00,VWS V14.01,2013-03-12 01:20:00,
2013-03-11 20:25:00,26.1,18.9,28.55,West,270,8.7,8.7,74,0.00,,,0.00,VWS V14.01,2013-03-12 01:25:00,
2013-03-11 20:30:00,26.1,18.6,28.55,West,270,7.6,10.1,73,0.00,,,0.00,VWS V14.01,2013-03-12 01:30:00,
2013-03-11 20:35:00,25.9,18.1,28.55,West,270,10.1,10.1,72,0.00,,,0.00,VWS V14.01,2013-03-12 01:35:00,
2013-03-11 20:40:00,25.9,18.1,28.58,West,270,8.1,10.1,72,0.00,,,0.00,VWS V14.01,2013-03-12 01:40:00,
2013-03-11 20:45:00,25.9,18.4,28.58,WNW,292,8.5,10.7,73,0.00,,,0.00,VWS V14.01,2013-03-12 01:45:00,
2013-03-11 20:50:00,25.9,18.1,28.58,West,270,11.4,11.4,72,0.00,,,0.00,VWS V14.01,2013-03-12 01:50:00,
2013-03-11 20:55:00,26.1,18.0,28.58,West,270,10.5,12.5,71,0.00,,,0.00,VWS V14.01,2013-03-12 01:55:00,
2013-03-11 21:00:00,26.1,17.6,28.58,WSW,248,11.0,13.2,70,0.00,,,0.00,VWS V14.01,2013-03-12 02:00:00,
2013-03-11 21:05:00,25.9,17.5,28.58,West,270,12.8,13.2,70,0.00,,,0.00,VWS V14.01,2013-03-12 02:05:00,
2013-03-11 21:10:00,25.9,17.5,28.58,WNW,292,11.4,13.0,70,0.00,,,0.00,VWS V14.01,2013-03-12 02:10:00,
2013-03-11 21:15:00,25.9,17.1,28.58,WSW,248,11.4,12.8,69,0.00,,,0.00,VWS V14.01,2013-03-12 02:15:00,
2013-03-11 21:20:00,25.7,17.0,28.58,WSW,248,9.8,12.1,69,0.00,,,0.00,VWS V14.01,2013-03-12 02:20:00,
2013-03-11 21:25:00,25.5,16.4,28.58,West,270,13.0,15.2,68,0.00,,,0.00,VWS V14.01,2013-03-12 02:25:00,
2013-03-11 21:30:00,25.3,15.9,28.58,WSW,248,13.0,13.2,67,0.00,,,0.00,VWS V14.01,2013-03-12 02:30:00,
2013-03-11 21:35:00,25.3,15.6,28.58,West,270,9.6,13.2,66,0.00,,,0.00,VWS V14.01,2013-03-12 02:35:00,
2013-03-11 21:40:00,25.2,15.8,28.58,West,270,10.1,12.8,67,0.00,,,0.00,VWS V14.01,2013-03-12 02:40:00,
2013-03-11 21:45:00,25.0,15.2,28.58,West,270,10.5,12.8,66,0.00,,,0.00,VWS V14.01,2013-03-12 02:45:00,
2013-03-11 21:50:00,24.6,14.9,28.58,West,270,12.1,13.2,66,0.00,,,0.00,VWS V14.01,2013-03-12 02:50:00,
2013-03-11 21:55:00,24.4,14.7,28.58,WNW,292,8.1,13.0,66,0.00,,,0.00,VWS V14.01,2013-03-12 02:55:00,
2013-03-11 22:00:00,23.9,14.6,28.58,West,270,9.8,10.7,67,0.00,,,0.00,VWS V14.01,2013-03-12 03:00:00,
2013-03-11 22:05:00,23.9,14.9,28.58,West,270,11.0,12.1,68,0.00,,,0.00,VWS V14.01,2013-03-12 03:05:00,
2013-03-11 22:10:00,23.7,14.4,28.58,WNW,292,11.2,13.4,67,0.00,,,0.00,VWS V14.01,2013-03-12 03:10:00,
2013-03-11 22:15:00,23.5,13.9,28.58,WNW,292,10.7,12.8,66,0.00,,,0.00,VWS V14.01,2013-03-12 03:15:00,
2013-03-11 22:20:00,23.2,14.2,28.58,WNW,292,10.5,12.1,68,0.00,,,0.00,VWS V14.01,2013-03-12 03:20:00,
2013-03-11 22:25:00,22.5,13.2,28.58,West,270,10.7,12.1,67,0.00,,,0.00,VWS V14.01,2013-03-12 03:25:00,
2013-03-11 22:30:00,22.1,12.8,28.58,WSW,248,11.0,11.0,67,0.00,,,0.00,VWS V14.01,2013-03-12 03:30:00,
2013-03-11 22:35:00,21.6,12.0,28.58,West,270,9.8,12.5,66,0.00,,,0.00,VWS V14.01,2013-03-12 03:35:00,
2013-03-11 22:40:00,21.0,11.8,28.61,WSW,248,10.7,12.5,67,0.00,,,0.00,VWS V14.01,2013-03-12 03:40:00,
2013-03-11 22:45:00,20.7,11.4,28.61,West,270,10.7,13.2,67,0.00,,,0.00,VWS V14.01,2013-03-12 03:45:00,
2013-03-11 22:50:00,19.9,10.1,28.61,WNW,292,9.4,10.7,65,0.00,,,0.00,VWS V14.01,2013-03-12 03:50:00,
2013-03-11 22:55:00,19.4,10.6,28.58,WNW,292,9.2,10.3,68,0.00,,,0.00,VWS V14.01,2013-03-12 03:55:00,
2013-03-11 23:00:00,19.2,11.1,28.58,West,270,9.0,10.3,70,0.00,,,0.00,VWS V14.01,2013-03-12 04:00:00,
2013-03-11 23:05:00,19.0,10.9,28.58,WNW,292,8.5,10.7,70,0.00,,,0.00,VWS V14.01,2013-03-12 04:05:00,
2013-03-11 23:10:00,18.9,10.7,28.58,WNW,292,9.8,10.3,70,0.00,,,0.00,VWS V14.01,2013-03-12 04:10:00,
2013-03-11 23:15:00,18.7,10.9,28.58,West,270,10.1,12.1,71,0.00,,,0.00,VWS V14.01,2013-03-12 04:15:00,
2013-03-11 23:20:00,18.7,10.9,28.58,West,270,10.3,11.0,71,0.00,,,0.00,VWS V14.01,2013-03-12 04:20:00,
2013-03-11 23:25:00,18.5,10.7,28.58,West,270,10.7,10.7,71,0.00,,,0.00,VWS V14.01,2013-03-12 04:25:00,
2013-03-11 23:30:00,18.3,10.2,28.58,WNW,292,8.5,10.7,70,0.00,,,0.00,VWS V14.01,2013-03-12 04:30:00,
2013-03-11 23:35:00,17.8,9.7,28.58,WNW,292,10.1,10.1,70,0.00,,,0.00,VWS V14.01,2013-03-12 04:35:00,
2013-03-11 23:40:00,17.6,9.8,28.58,West,270,9.8,11.0,71,0.00,,,0.00,VWS V14.01,2013-03-12 04:40:00,
2013-03-11 23:45:00,17.1,9.0,28.58,WNW,292,7.8,10.3,70,0.00,,,0.00,VWS V14.01,2013-03-12 04:45:00,
2013-03-11 23:50:00,16.9,9.1,28.58,West,270,9.6,9.6,71,0.00,,,0.00,VWS V14.01,2013-03-12 04:50:00,
2013-03-11 23:55:00,16.7,8.9,28.58,WNW,292,7.4,10.3,71,0.00,,,0.00,VWS V14.01,2013-03-12 04:55:00,